SICH-1
1 23657U 95046A   06201.71569019  .00000111  00000-0  11131-4 0  8043
2 23657 082.5285 026.6269 0022442 252.1399 107.7355 14.81373006586955
NOAA-15
1 25338U 98030A   06201.80707425  .00000125  00000-0  53757-4 0  5875
2 25338 098.5169 203.1035 0009660 278.4359 081.6213 14.24593674425517
RESURS
1 25394U 98043A   06200.95506677 -.00000001  00000-0  18078-4 0 04197
2 25394 098.4919 262.7383 0002426 074.1564 285.9881 14.24106645417069
FENGYUN1
1 25730U 99025A   06200.58060704 -.00000079  00000-0 -20116-4 0 07811
2 25730 098.6263 191.9035 0015304 050.5595 309.6911 14.11813434370585
OKEAN-0
1 25860U 99039A   06200.60533610  .00000024  00000-0  10917-4 0 08046
2 25860 097.7319 213.4263 0001714 050.3111 309.8248 14.73376472376525
NOAA-16
1 26536U 00055A   06201.22923021  .00000059  00000-0  56926-4 0  9639
2 26536 099.0677 168.2396 0011157 031.2340 328.9482 14.12356187300248
NOAA-17
1 27453U 02032A   06201.34092481 -.00000054  00000-0 -46326-5 0  9816
2 27453 098.6193 272.9076 0011400 343.5917 016.4899 14.23794095211498
NOAA-18
1 28654U 05018A   06201.32345706  .00000345  00000-0  21618-3 0  5616
2 28654 098.7887 143.8929 0015082 125.2191 235.0406 14.10976922 60059
HUBBLE
1 20580U 90037B   06200.43091422  .00000235  00000-0  53575-5 0 06589
2 20580 028.4675 199.6877 0003929 166.7195 193.3494 15.00065039689942
UARS
1 21701U 91063B   06200.81857381  .00002555  00000-0  55222-4 0 08401
2 21701 056.9794 311.7601 0096909 271.9693 087.0266 15.43985847814345
PO-34
1 25520U 98064B   06200.98471015  .00000565  00000-0  18293-4 0 05207
2 25520 028.4586 171.7317 0005290 228.8472 131.1663 15.16751085427031
ISS
1 25544U 98067A   06201.46952735  .00009193  00000-0  60758-4 0  3367
2 25544 051.6343 016.0148 0010773 093.7262 357.5267 15.76400051438415
OO-38
1 26063U 00004C   06200.69762723 -.00000013  00000-0  15888-4 0 06717
2 26063 100.1886 137.5908 0037090 016.5052 343.7325 14.35771410339346
NO-45
1 26932U 01043D   06200.68826392 -.00000065  00000-0  68804-5 0 03797
2 26932 067.0510 283.6728 0008479 248.7762 111.2433 14.29529763250610
UWE-1
1 28892U 05043C   06200.69583779  .00000092  00000-0  29117-4 0 05062
2 28892 098.1602 098.3828 0018634 071.2817 289.0370 14.59374191038715
CO-58
1 28895U 05043F   06200.75438725  .00000275  00000-0  67626-4 0  4892
2 28895 098.1633 098.5318 0019011 071.6740 288.6560 14.59426894 38609
NCUBE2
1 28897U 05043H   06200.59110458  .00000119  00000-0  34697-4 0 00970
2 28897 098.1615 098.3571 0018370 073.4126 286.9078 14.59581824030854
